Location: Unspecified
(40.7945°N, 111.1337°W)
Time: 02:06:30
(UTC-06:00)

ISS - Visible Passes

Search period start: 22 August 2018 00:00
Search period end: 01 September 2018 00:00
Orbit: 401 x 409 km, 51.6° (Epoch: 22 August)

Date Brightness Start Highest point End Pass type
(mag) Time Alt. Az. Time Alt. Az. Time Alt. Az.
28 Aug -1.3 05:47:22 10° S 05:49:32 17° SE 05:51:43 10° E visible
30 Aug -2.9 05:39:33 17° SSW 05:41:41 40° SE 05:44:46 10° ENE visible
31 Aug -1.8 04:49:49 21° SE 04:49:49 21° SE 04:52:18 10° E visible
